Time,TemperatureF,DewpointF,PressureIn,WindDirection,WindDirectionDegrees,WindSpeedMPH,WindSpeedGustMPH,Humidity,HourlyPrecipIn,Conditions,Clouds,dailyrainin,SoftwareType,DateUTC
2013-02-09 00:00:00,39.5,28.0,30.15,West,276,4.0,7.0,63,0.00,,CLR,0.63,VWS V14.01,2013-02-09 05:00:00,
2013-02-09 00:01:00,39.5,28.0,30.15,NW,311,3.0,7.0,63,0.00,,CLR,0.63,VWS V14.01,2013-02-09 05:01:00,
2013-02-09 00:03:00,39.5,28.0,30.14,NW,311,1.0,7.0,63,0.00,,CLR,0.63,VWS V14.01,2013-02-09 05:03:00,
2013-02-09 00:04:00,39.5,28.0,30.14,NW,316,2.0,7.0,63,0.00,,CLR,0.63,VWS V14.01,2013-02-09 05:04:00,
2013-02-09 00:09:00,39.3,27.8,30.14,WNW,301,5.0,5.0,63,0.00,,CLR,0.00,VWS V14.01,2013-02-09 05:09:00,
2013-02-09 00:15:00,39.2,28.1,30.14,NW,309,2.0,4.0,64,0.00,,CLR,0.00,VWS V14.01,2013-02-09 05:15:00,
2013-02-09 00:21:00,38.9,28.1,30.14,West,281,2.0,4.0,65,0.00,,CLR,0.00,VWS V14.01,2013-02-09 05:21:00,
2013-02-09 00:27:00,38.9,27.8,30.14,West,275,5.0,5.0,64,0.00,,CLR,0.00,VWS V14.01,2013-02-09 05:27:00,
2013-02-09 00:33:00,39.1,27.2,30.14,NW,306,6.0,11.0,62,0.00,,CLR,0.00,VWS V14.01,2013-02-09 05:33:00,
2013-02-09 00:39:00,39.2,26.9,30.14,NW,315,0.0,14.0,61,0.00,,CLR,0.00,VWS V14.01,2013-02-09 05:39:00,
2013-02-09 00:45:00,39.1,26.8,30.14,NW,305,3.0,3.0,61,0.00,,CLR,0.00,VWS V14.01,2013-02-09 05:45:00,
2013-02-09 00:51:00,39.1,27.2,30.14,WNW,301,5.0,9.0,62,0.00,,CLR,0.00,VWS V14.01,2013-02-09 05:51:00,
2013-02-09 00:57:00,38.9,26.6,30.14,NW,309,3.0,5.0,61,0.00,,CLR,0.00,VWS V14.01,2013-02-09 05:57:00,
2013-02-09 01:03:00,38.9,26.2,30.15,WNW,288,0.0,8.0,60,0.00,,CLR,0.00,VWS V14.01,2013-02-09 06:03:00,
2013-02-09 01:09:00,38.8,26.1,30.15,WNW,296,1.0,10.0,60,0.00,,CLR,0.00,VWS V14.01,2013-02-09 06:09:00,
2013-02-09 01:15:00,38.8,25.7,30.15,WNW,303,3.0,6.0,59,0.00,,CLR,0.00,VWS V14.01,2013-02-09 06:15:00,
2013-02-09 01:21:00,38.6,25.9,30.15,NW,306,0.0,6.0,60,0.00,,CLR,0.00,VWS V14.01,2013-02-09 06:21:00,
2013-02-09 01:27:00,38.3,25.6,30.15,WNW,282,6.0,7.0,60,0.00,,CLR,0.00,VWS V14.01,2013-02-09 06:27:00,
2013-02-09 01:34:00,38.5,25.4,30.17,NNW,328,1.0,7.0,59,0.00,,CLR,0.00,VWS V14.01,2013-02-09 06:34:00,
2013-02-09 01:40:00,38.2,25.5,30.17,NW,312,0.0,3.0,60,0.00,,CLR,0.00,VWS V14.01,2013-02-09 06:40:00,
2013-02-09 01:46:00,37.9,25.3,30.17,WNW,295,0.0,2.0,60,0.00,,CLR,0.00,VWS V14.01,2013-02-09 06:46:00,
2013-02-09 01:52:00,37.8,25.2,30.17,NW,317,4.0,4.0,60,0.00,,CLR,0.00,VWS V14.01,2013-02-09 06:52:00,
2013-02-09 01:58:00,37.6,25.0,30.17,North,349,0.0,6.0,60,0.00,,CLR,0.00,VWS V14.01,2013-02-09 06:58:00,
2013-02-09 02:04:00,37.6,25.4,30.17,WNW,300,3.0,6.0,61,0.00,,CLR,0.00,VWS V14.01,2013-02-09 07:04:00,
2013-02-09 02:10:00,37.3,25.5,30.17,West,281,5.0,5.0,62,0.00,,CLR,0.00,VWS V14.01,2013-02-09 07:10:00,
2013-02-09 02:16:00,37.2,25.4,30.17,WNW,302,0.0,2.0,62,0.00,,CLR,0.00,VWS V14.01,2013-02-09 07:16:00,
2013-02-09 02:22:00,36.8,25.4,30.17,WNW,283,0.0,3.0,63,0.00,,CLR,0.00,VWS V14.01,2013-02-09 07:22:00,
2013-02-09 02:28:00,36.3,25.7,30.17,West,275,0.0,2.0,65,0.00,,CLR,0.00,VWS V14.01,2013-02-09 07:28:00,
2013-02-09 02:34:00,36.0,25.8,30.17,NW,318,0.0,3.0,66,0.00,,CLR,0.00,VWS V14.01,2013-02-09 07:34:00,
2013-02-09 02:39:00,36.0,25.4,30.17,WNW,293,0.0,4.0,65,0.00,,CLR,0.00,VWS V14.01,2013-02-09 07:39:00,
2013-02-09 02:44:00,35.9,25.7,30.17,WNW,293,0.0,4.0,66,0.00,,CLR,0.00,VWS V14.01,2013-02-09 07:44:00,
2013-02-09 02:49:00,35.9,25.7,30.17,WNW,295,0.0,1.0,66,0.00,,CLR,0.00,VWS V14.01,2013-02-09 07:49:00,
2013-02-09 02:55:00,35.8,25.6,30.17,WNW,302,0.0,2.0,66,0.00,,CLR,0.00,VWS V14.01,2013-02-09 07:55:00,
2013-02-09 03:01:00,35.8,25.6,30.17,WNW,302,0.0,2.0,66,0.00,,CLR,0.00,VWS V14.01,2013-02-09 08:01:00,
2013-02-09 03:07:00,35.5,25.3,30.17,WNW,302,0.0,0.0,66,0.00,,CLR,0.00,VWS V14.01,2013-02-09 08:07:00,
2013-02-09 03:13:00,34.9,25.4,30.17,WNW,302,1.0,1.0,68,0.00,,CLR,0.00,VWS V14.01,2013-02-09 08:13:00,
2013-02-09 03:19:00,34.6,25.5,30.17,WNW,302,0.0,3.0,69,0.00,,CLR,0.00,VWS V14.01,2013-02-09 08:19:00,
2013-02-09 03:25:00,34.6,25.1,30.17,WNW,302,0.0,0.0,68,0.00,,CLR,0.00,VWS V14.01,2013-02-09 08:25:00,
2013-02-09 03:31:00,34.3,25.2,30.17,WNW,302,0.0,0.0,69,0.00,,CLR,0.00,VWS V14.01,2013-02-09 08:31:00,
2013-02-09 03:37:00,33.8,25.4,30.18,WNW,302,0.0,0.0,71,0.00,,CLR,0.00,VWS V14.01,2013-02-09 08:37:00,
2013-02-09 03:43:00,33.1,25.4,30.18,WNW,302,0.0,1.0,73,0.00,,CLR,0.00,VWS V14.01,2013-02-09 08:43:00,
2013-02-09 03:49:00,33.4,25.4,30.18,WNW,302,0.0,2.0,72,0.00,,CLR,0.00,VWS V14.01,2013-02-09 08:49:00,
2013-02-09 03:55:00,33.7,25.6,30.18,WNW,302,0.0,0.0,72,0.00,,CLR,0.00,VWS V14.01,2013-02-09 08:55:00,
2013-02-09 04:01:00,33.7,25.6,30.18,WNW,301,0.0,2.0,72,0.00,,CLR,0.00,VWS V14.01,2013-02-09 09:01:00,
2013-02-09 04:07:00,33.5,25.5,30.18,NW,309,0.0,3.0,72,0.00,,CLR,0.00,VWS V14.01,2013-02-09 09:07:00,
2013-02-09 04:13:00,33.1,25.7,30.18,NW,308,0.0,3.0,74,0.00,,CLR,0.00,VWS V14.01,2013-02-09 09:13:00,
2013-02-09 04:19:00,33.4,25.4,30.20,WNW,289,1.0,4.0,72,0.00,,CLR,0.00,VWS V14.01,2013-02-09 09:19:00,
2013-02-09 04:26:00,33.7,25.3,30.20,WNW,282,1.0,2.0,71,0.00,,CLR,0.00,VWS V14.01,2013-02-09 09:26:00,
2013-02-09 04:32:00,33.5,25.1,30.20,WNW,291,0.0,2.0,71,0.00,,CLR,0.00,VWS V14.01,2013-02-09 09:32:00,
2013-02-09 04:38:00,33.4,24.7,30.21,WNW,291,0.0,1.0,70,0.00,,CLR,0.00,VWS V14.01,2013-02-09 09:38:00,
2013-02-09 04:43:00,33.4,24.7,30.21,WNW,291,0.0,1.0,70,0.00,,CLR,0.00,VWS V14.01,2013-02-09 09:43:00,
2013-02-09 04:50:00,33.1,25.1,30.22,WNW,285,1.0,2.0,72,0.00,,CLR,0.00,VWS V14.01,2013-02-09 09:50:00,
2013-02-09 04:56:00,32.7,25.0,30.22,WNW,288,0.0,3.0,73,0.00,,CLR,0.00,VWS V14.01,2013-02-09 09:56:00,
2013-02-09 05:02:00,32.9,24.5,30.22,WNW,288,0.0,3.0,71,0.00,,CLR,0.00,VWS V14.01,2013-02-09 10:02:00,
2013-02-09 05:08:00,32.9,24.5,30.23,WNW,290,0.0,2.0,71,0.00,,CLR,0.00,VWS V14.01,2013-02-09 10:08:00,
2013-02-09 05:14:00,32.8,24.5,30.23,WNW,300,0.0,2.0,71,0.00,,CLR,0.00,VWS V14.01,2013-02-09 10:14:00,
2013-02-09 05:20:00,32.9,24.5,30.23,WNW,290,2.0,3.0,71,0.00,,CLR,0.00,VWS V14.01,2013-02-09 10:20:00,
2013-02-09 05:26:00,32.4,24.4,30.23,WNW,290,1.0,1.0,72,0.00,,CLR,0.00,VWS V14.01,2013-02-09 10:26:00,
2013-02-09 05:32:00,31.9,24.6,30.23,WNW,302,1.0,3.0,74,0.00,,CLR,0.00,VWS V14.01,2013-02-09 10:32:00,
2013-02-09 05:38:00,31.9,24.6,30.24,WNW,303,2.0,3.0,74,0.00,,CLR,0.00,VWS V14.01,2013-02-09 10:38:00,
2013-02-09 05:43:00,32.4,24.7,30.24,NW,322,0.0,4.0,73,0.00,,CLR,0.00,VWS V14.01,2013-02-09 10:43:00,
2013-02-09 05:50:00,32.5,24.5,30.25,WNW,289,0.0,3.0,72,0.00,,CLR,0.00,VWS V14.01,2013-02-09 10:50:00,
2013-02-09 05:56:00,32.5,24.2,30.25,WNW,291,0.0,1.0,71,0.00,,CLR,0.00,VWS V14.01,2013-02-09 10:56:00,
2013-02-09 06:02:00,32.7,24.0,30.25,NW,314,1.0,5.0,70,0.00,,CLR,0.00,VWS V14.01,2013-02-09 11:02:00,
2013-02-09 06:08:00,32.7,24.0,30.25,NW,305,3.0,3.0,70,0.00,,CLR,0.00,VWS V14.01,2013-02-09 11:08:00,
2013-02-09 06:14:00,32.8,23.8,30.25,WNW,296,0.0,3.0,69,0.00,,CLR,0.00,VWS V14.01,2013-02-09 11:14:00,
2013-02-09 06:19:00,32.7,23.3,30.26,WNW,290,1.0,3.0,68,0.00,,CLR,0.00,VWS V14.01,2013-02-09 11:19:00,
2013-02-09 06:24:00,32.5,23.5,30.26,WNW,288,0.0,4.0,69,0.00,,CLR,0.00,VWS V14.01,2013-02-09 11:24:00,
2013-02-09 06:29:00,32.5,23.1,30.26,WNW,283,2.0,4.0,68,0.00,,CLR,0.00,VWS V14.01,2013-02-09 11:29:00,
2013-02-09 06:35:00,32.4,23.4,30.27,WNW,283,0.0,1.0,69,0.00,,CLR,0.00,VWS V14.01,2013-02-09 11:35:00,
2013-02-09 06:41:00,32.2,23.2,30.27,NW,304,0.0,4.0,69,0.00,,CLR,0.00,VWS V14.01,2013-02-09 11:41:00,
2013-02-09 06:47:00,32.1,23.1,30.27,WNW,282,0.0,2.0,69,0.00,,CLR,0.00,VWS V14.01,2013-02-09 11:47:00,
2013-02-09 06:53:00,31.9,23.2,30.28,WNW,284,0.0,3.0,70,0.00,,CLR,0.00,VWS V14.01,2013-02-09 11:53:00,
2013-02-09 06:59:00,31.9,22.9,30.28,West,281,0.0,3.0,69,0.00,,CLR,0.00,VWS V14.01,2013-02-09 11:59:00,
2013-02-09 07:05:00,31.8,22.8,30.30,WNW,290,0.0,2.0,69,0.00,,FEW250,0.00,VWS V14.01,2013-02-09 12:05:00,
2013-02-09 07:11:00,31.9,22.5,30.30,WNW,290,1.0,2.0,68,0.00,,FEW250,0.00,VWS V14.01,2013-02-09 12:11:00,
2013-02-09 07:17:00,31.8,22.8,30.30,WNW,290,0.0,1.0,69,0.00,,FEW250,0.00,VWS V14.01,2013-02-09 12:17:00,
2013-02-09 07:23:00,31.6,22.6,30.31,WNW,290,0.0,1.0,69,0.00,,FEW250,0.00,VWS V14.01,2013-02-09 12:23:00,
2013-02-09 07:29:00,31.2,22.9,30.31,WNW,290,0.0,0.0,71,0.00,,FEW250,0.00,VWS V14.01,2013-02-09 12:29:00,
2013-02-09 07:35:00,30.9,22.6,30.32,WNW,290,0.0,0.0,71,0.00,,FEW250,0.00,VWS V14.01,2013-02-09 12:35:00,
2013-02-09 07:42:00,30.9,23.0,30.32,WNW,290,0.0,2.0,72,0.00,,FEW250,0.00,VWS V14.01,2013-02-09 12:42:00,
2013-02-09 07:48:00,30.9,23.3,30.32,WNW,290,0.0,1.0,73,0.00,,FEW250,0.00,VWS V14.01,2013-02-09 12:48:00,
2013-02-09 07:54:00,31.6,23.6,30.34,West,275,0.0,2.0,72,0.00,,FEW250,0.00,VWS V14.01,2013-02-09 12:54:00,
2013-02-09 08:00:00,31.9,23.6,30.34,WNW,296,0.0,2.0,71,0.00,,FEW250,0.00,VWS V14.01,2013-02-09 13:00:00,
2013-02-09 08:06:00,32.5,23.8,30.35,WNW,295,3.0,3.0,70,0.00,,CLR,0.00,VWS V14.01,2013-02-09 13:06:00,
2013-02-09 08:12:00,33.2,23.5,30.35,WNW,290,2.0,3.0,67,0.00,,CLR,0.00,VWS V14.01,2013-02-09 13:12:00,
2013-02-09 08:18:00,33.8,23.3,30.36,West,275,2.0,4.0,65,0.00,,CLR,0.00,VWS V14.01,2013-02-09 13:18:00,
2013-02-09 08:24:00,34.4,23.5,30.36,West,281,0.0,4.0,64,0.00,,CLR,0.00,VWS V14.01,2013-02-09 13:24:00,
2013-02-09 08:30:00,34.7,23.4,30.36,NW,323,3.0,4.0,63,0.00,,CLR,0.00,VWS V14.01,2013-02-09 13:30:00,
2013-02-09 08:36:00,35.3,23.2,30.37,WNW,302,2.0,4.0,61,0.00,,CLR,0.00,VWS V14.01,2013-02-09 13:36:00,
2013-02-09 08:42:00,35.6,23.5,30.37,West,262,1.0,4.0,61,0.00,,CLR,0.00,VWS V14.01,2013-02-09 13:42:00,
2013-02-09 08:48:00,36.0,22.7,30.38,WNW,295,4.0,6.0,58,0.00,,CLR,0.00,VWS V14.01,2013-02-09 13:48:00,
2013-02-09 08:54:00,36.5,22.3,30.38,West,278,2.0,6.0,56,0.00,,CLR,0.00,VWS V14.01,2013-02-09 13:54:00,
2013-02-09 09:00:00,36.8,22.2,30.38,NNW,338,2.0,6.0,55,0.00,,CLR,0.00,VWS V14.01,2013-02-09 14:00:00,
2013-02-09 09:06:00,37.0,21.9,30.38,NW,321,3.0,9.0,54,0.00,,CLR,0.00,VWS V14.01,2013-02-09 14:06:00,
2013-02-09 09:12:00,37.3,21.3,30.38,NW,326,2.0,9.0,52,0.00,,CLR,0.00,VWS V14.01,2013-02-09 14:12:00,
2013-02-09 09:18:00,37.8,20.8,30.38,NW,312,4.0,9.0,50,0.00,,CLR,0.00,VWS V14.01,2013-02-09 14:18:00,
2013-02-09 09:24:00,37.9,20.0,30.38,WNW,290,0.0,9.0,48,0.00,,CLR,0.00,VWS V14.01,2013-02-09 14:24:00,
2013-02-09 09:29:00,38.2,20.7,30.38,NW,324,3.0,10.0,49,0.00,,CLR,0.00,VWS V14.01,2013-02-09 14:29:00,
2013-02-09 09:34:00,38.3,19.9,30.38,WNW,298,4.0,10.0,47,0.00,,CLR,0.00,VWS V14.01,2013-02-09 14:34:00,
2013-02-09 09:39:00,38.5,20.5,30.38,NW,306,4.0,6.0,48,0.00,,CLR,0.00,VWS V14.01,2013-02-09 14:39:00,
2013-02-09 09:45:00,38.6,20.1,30.38,WNW,292,3.0,5.0,47,0.00,,CLR,0.00,VWS V14.01,2013-02-09 14:45:00,
2013-02-09 09:51:00,39.1,20.1,30.39,NW,314,4.0,9.0,46,0.00,,CLR,0.00,VWS V14.01,2013-02-09 14:51:00,
2013-02-09 09:57:00,39.3,19.8,30.39,West,264,4.0,10.0,45,0.00,,CLR,0.00,VWS V14.01,2013-02-09 14:57:00,